EW8311 Weather Reports


time (UTC)temp
F
wind
direction
speed
knots
gust
knots
rain 1hr
in
rain 24hr
in
rain mn
in
humidity
%
barometer
mb
20260506200117 75 262 0.9 7.0 0.00 0.00 0.00 30 1010.0
20260506194543 74 316 1.7 5.2 0.00 0.00 0.00 31 1010.2
20260506193045 75 316 1.7 4.3 0.00 0.00 0.00 31 1010.4
20260506191541 74 106 2.6 7.0 0.00 0.00 0.00 29 1010.6
20260506190039 73 247 0.9 5.2 0.00 0.00 0.00 31 1010.8
20260506184536 72 256 1.7 6.1 0.00 0.00 0.00 32 1010.8
20260506183034 71 251 1.7 5.2 0.00 0.00 0.00 33 1011.0
20260506181535 70 322 0.9 5.2 0.00 0.00 0.00 37 1011.2
20260506180038 69 327 2.6 5.2 0.00 0.00 0.00 35 1011.4
20260506174529 69 279 0.9 5.2 0.00 0.00 0.00 37 1011.4
20260506173024 68 328 1.7 5.2 0.00 0.00 0.00 38 1011.4
20260506171537 67 317 0.9 4.3 0.00 0.00 0.00 39 1011.3
20260506170018 67 272 0.9 3.5 0.00 0.00 0.00 41 1011.5
20260506164516 65 279 2.6 5.2 0.00 0.00 0.00 45 1011.4
20260506163019 64 277 1.7 5.2 0.00 0.00 0.00 48 1011.3
20260506161519 64 251 0.0 3.5 0.00 0.00 0.00 48 1011.2
20260506160010 64 295 0.9 3.5 0.00 0.00 0.00 50 1011.2
20260506154504 63 280 0.9 4.3 0.00 0.00 0.00 52 1011.1
20260506153105 62 127 0.9 3.5 0.00 0.00 0.00 52 1011.1
20260506151558 61 262 0.0 1.7 0.00 0.00 0.00 54 1011.2
20260506150058 60 339 0.0 1.7 0.00 0.00 0.00 55 1011.1
20260506144554 59 346 0.9 2.6 0.00 0.00 0.00 57 1011.1
20260506143051 58 328 0.0 0.9 0.00 0.00 0.00 59 1011.2
20260506141549 58 260 0.0 0.9 0.00 0.00 0.00 61 1011.1
20260506140049 57 263 0.0 0.0 0.00 0.00 0.00 63 1011.1
20260506134611 56 115 0.0 0.0 0.00 0.00 0.00 66 1010.9
20260506133044 52 115 0.0 0.0 0.00 0.00 0.00 76 1011.0
20260506131601 50 115 0.0 0.0 0.00 0.00 0.00 79 1010.8
20260506130043 49 115 0.0 0.0 0.00 0.00 0.00 80 1010.8
20260506124539 49 115 0.0 0.0 0.00 0.02 0.00 80 1010.6
20260506123043 49 115 0.0 0.0 0.00 0.02 0.00 79 1010.5
20260506121537 50 115 0.0 0.0 0.00 0.02 0.00 79 1010.3
20260506120032 51 115 0.0 0.0 0.00 0.02 0.00 75 1010.2
20260506114534 52 115 0.0 0.0 0.00 0.03 0.00 73 1010.0
20260506113032 53 115 0.0 0.0 0.00 0.03 0.00 69 1010.0
20260506111524 53 115 0.0 0.0 0.00 0.03 0.00 69 1009.9
20260506110022 52 115 0.0 0.0 0.00 0.03 0.00 70 1009.8
20260506104519 53 115 0.0 0.0 0.00 0.05 0.00 69 1009.8
20260506103022 55 115 0.0 0.9 0.00 0.05 0.00 65 1009.7
20260506101513 55 116 0.0 1.7 0.00 0.05 0.00 64 1009.5
20260506100016 55 120 0.0 0.9 0.00 0.05 0.00 64 1009.3
20260506094515 55 120 0.0 1.7 0.00 0.10 0.00 61 1009.2
20260506093007 55 103 0.0 0.9 0.00 0.10 0.00 59 1009.2
20260506091506 56 103 0.0 0.0 0.00 0.10 0.00 58 1009.0
20260506090005 56 103 0.0 1.7 0.00 0.10 0.00 58 1009.1
20260506084502 57 102 0.9 1.7 0.00 0.15 0.00 57 1009.1
20260506083124 57 117 0.0 1.7 0.00 0.15 0.00 57 1009.1
20260506081604 57 101 0.0 1.7 0.00 0.15 0.00 58 1009.2
20260506080104 57 116 0.0 0.0 0.00 0.15 0.00 58 1009.3
20260506073053 57 91 0.0 0.9 0.00 0.21 0.00 54 1009.2
20260506071554 58 105 0.0 1.7 0.00 0.21 0.00 52 1009.2
20260506061546 60 316 1.7 4.3 0.00 0.27 0.21 49 1008.7
20260506044542 63 333 3.5 7.8 0.00 0.32 0.21 50 1008.1
20260506043042 64 317 4.3 11.3 0.00 0.32 0.21 48 1008.0
20260506041540 64 304 5.2 10.4 0.00 0.32 0.21 46 1007.9
20260506040041 64 280 4.3 8.7 0.00 0.32 0.21 43 1007.7
20260506034541 64 290 2.6 5.2 0.00 0.35 0.21 42 1007.5
20260506033039 65 307 2.6 6.1 0.00 0.35 0.21 41 1007.3
20260506031540 65 315 1.7 5.2 0.00 0.35 0.21 40 1007.1
20260506030038 65 311 2.6 7.0 0.00 0.35 0.21 38 1006.9
20260506024542 66 315 3.5 8.7 0.00 0.42 0.21 36 1006.7
20260506023036 66 321 4.3 7.8 0.00 0.42 0.21 35 1006.5
20260506021535 67 293 3.5 7.8 0.00 0.42 0.21 34 1006.1
20260506020034 67 322 5.2 12.2 0.00 0.42 0.21 35 1005.9
20260506014535 69 332 7.0 13.9 0.00 0.47 0.21 34 1005.7
20260506013034 70 261 7.0 15.6 0.00 0.47 0.21 33 1005.5
20260506011559 71 308 8.7 14.8 0.00 0.47 0.21 31 1005.4
20260506010032 73 269 4.3 9.6 0.00 0.47 0.21 29 1005.2
20260506004537 72 322 4.3 10.4 0.00 0.50 0.21 29 1005.0
20260506003031 72 281 4.3 9.6 0.00 0.50 0.21 28 1005.1
20260506001529 74 257 2.6 9.6 0.00 0.50 0.21 31 1004.9
20260506000045 72 274 3.5 7.8 0.00 0.50 0.21 31 1004.9
20260505234539 72 298 2.6 12.2 0.00 0.53 0.21 31 1004.8
20260505233028 73 311 2.6 7.8 0.00 0.53 0.21 31 1004.8
20260505231533 74 323 3.5 9.6 0.00 0.53 0.21 29 1004.8
20260505230051 73 264 2.6 9.6 0.00 0.53 0.21 30 1004.7
20260505224538 72 103 2.6 7.8 0.00 0.53 0.21 29 1005.0
20260505223028 73 310 3.5 10.4 0.00 0.53 0.21 32 1005.1
20260505221528 74 302 4.3 8.7 0.00 0.53 0.21 33 1005.2
20260505220027 73 300 8.7 15.6 0.00 0.53 0.21 31 1005.2
20260505214527 74 298 8.7 13.0 0.00 0.53 0.21 32 1005.4
20260505213025 72 307 7.8 17.4 0.00 0.53 0.21 35 1005.4
20260505211527 72 249 5.2 12.2 0.00 0.53 0.21 37 1005.7
20260505210018 73 325 7.8 15.6 0.00 0.53 0.21 37 1005.7
20260505204515 71 316 5.2 14.8 0.00 0.53 0.21 40 1005.6
20260505203014 71 315 6.1 10.4 0.00 0.53 0.21 42 1005.8
20260505201511 68 316 2.6 7.0 0.00 0.53 0.21 52 1006.0